This demonstration page uses our WeatherBlox Daily Observations layout. Learn more.

Left ArrowRight Arrow

41.86663, -103.66717

Hourly Observations for October 26, 2021

Temp ( °F °C ) Dew Point ( °F °C ) Humidity (%) Winds ( mph kmh ) Pressure ( in mb ) Visibility ( mi km ) Precip ( " mm )
12:53 am 00:53 Clear 44 6.7 39 3.9 83 83 ESE 16 26 29.59 1002 10 16 N/A
1:53 am 01:53 Clear 43 6.1 39 3.9 86 86 ESE 16 26 29.56 1001 10 16 N/A
2:53 am 02:53 Clear 43 6.1 40 4.4 89 89 ESE 18 30 29.53 1000 10 16 N/A
3:53 am 03:53 Clear 43 6.1 40 4.4 89 89 ESE 15 24 29.51 999 9 14 N/A
4:31 am 04:31 Partly Cloudy 43 6.1 40 4.4 89 89 ESE 17 28 29.58 1002 8 13 N/A
4:40 am 04:40 Mostly Cloudy 45 7 41 5 87 87 ESE 15 24 29.56 1001 8 13 N/A
4:53 am 04:53 Cloudy 44 6.7 41 5 89 89 ESE 16 26 29.49 999 9 14 N/A
5:14 am 05:14 Cloudy 45 7 41 5 87 87 ESE 14 22 29.56 1001 9 14 N/A
5:53 am 05:53 Cloudy 44 6.7 41 5 89 89 ESE 16 26 29.49 999 8 13 N/A
6:53 am 06:53 Cloudy 43 6.1 41 5 93 93 ESE 14 22 29.49 999 7 11 N/A
7:53 am 07:53 Cloudy with Mist and Fog 43 6.1 41 5 93 93 ESE 15 24 29.48 998 4 6 N/A
8:39 am 08:39 Cloudy with Mist and Fog 44 6.7 41 5 89 89 ESE 15 24 29.52 1000 2 3 N/A
8:50 am 08:50 Cloudy with Mist and Fog 45 7 41 5 87 87 ESE 15 24 29.49 999 5 8 N/A
8:53 am 08:53 Cloudy with Mist and Fog 44 6.7 41 5 89 89 ESE 14 22 29.46 998 5 8 N/A
9:53 am 09:53 Cloudy 45 7.2 41 5 86 86 SE 14 22 29.45 997 10 16 N/A
10:27 am 10:27 Cloudy 46 7.8 42 5.6 86 86 ESE 13 20 29.47 998 10 16 N/A
10:53 am 10:53 Cloudy 48 8.9 42 5.6 80 80 ESE 9 15 29.44 997 10 16 N/A
11:22 am 11:22 Cloudy 48 8.9 41 5 77 77 N N/A 29.46 998 10 16 N/A
11:53 am 11:53 Cloudy 50 10 41 5 71 71 VRB 3 6 29.45 997 10 16 N/A
12:53 pm 12:53 Cloudy 50 10 41 5 71 71 W 5 7 29.44 997 10 16 N/A
1:48 pm 13:48 Mostly Cloudy 54 12 43 6 67 67 WNW 13 20 29.43 997 10 16 N/A
1:53 pm 13:53 Mostly Cloudy 56 13.3 42 5.6 60 60 NNW 15 24 29.45 997 10 16 N/A
2:01 pm 14:01 Mostly Sunny 55 12.8 42 5.6 62 62 WNW 10 17 29.42 996 10 16 N/A
2:53 pm 14:53 Cloudy 56 13.3 43 6.1 62 62 NW 16 26 29.47 998 10 16 N/A
3:53 pm 15:53 Cloudy with Light Rain 51 10.6 42 5.6 71 71 NNW 23 37 29.54 1000 10 16 0.00 0.00
4:53 pm 16:53 Cloudy with Light Rain 48 9 N/A N/A NW 18 30 29.60 1002 6 10 0.06 1.52
5:53 pm 17:53 Cloudy with Light Rain 45 7 N/A N/A WNW 14 22 29.66 1005 10 16 0.06 1.52
6:36 pm 18:36 Cloudy with Light Rain 43 6 N/A N/A NW 28 44 29.70 1006 8 13 N/A
6:43 pm 18:43 Cloudy with Light Rain 43 6 N/A N/A NW 26 43 29.72 1006 8 13 N/A
6:53 pm 18:53 Cloudy with Light Rain 43 6 N/A N/A NW 17 28 29.72 1007 10 16 0.09 2.29
7:17 pm 19:17 Cloudy with Light Rain 39 4 N/A N/A NW 21 33 29.78 1008 10 16 0.01 0.25
7:53 pm 19:53 Cloudy with Light Rain 39 4 N/A N/A NW 18 30 29.75 1007 10 16 0.02 0.51
8:13 pm 20:13 Cloudy with Light Rain 39 4 N/A N/A NW 21 33 29.80 1009 10 16 0.01 0.25
8:53 pm 20:53 Cloudy with Light Rain 39 4 N/A N/A NW 22 35 29.78 1008 10 16 0.03 0.76
9:53 pm 21:53 Cloudy 39 4 N/A N/A NW 23 37 29.78 1008 10 16 0.00 0.00
10:53 pm 22:53 Cloudy 41 5 N/A N/A NW 20 31 29.79 1009 10 16 N/A
11:53 pm 23:53 Cloudy with Light Rain 41 5 N/A N/A WNW 17 28 29.81 1010 10 16 0.00 0.00

Powered by AerisWeather